Вернуться в каталог

STARLINK-34657

АктивенСвязьVLEO
NORAD 64775·PAYLOAD·🇺🇸 United States

Запущен Jul 8, 2025 с Cape Canaveral Space Force Station

Loading…

Ближайшие Пролёты (ближайшие 24 часа)

TLE

СвежийSource: CelesTrak SupGP

Эпоха: Sep 14, 2026, 20:54 UTC

1 64775C 25147W   26257.87131944 -.00016323  00000+0 -48240-3 0  2571
2 64775  53.1576  80.0693 0001270  88.8638 213.6261 15.34390138    14

Отслеживайте STARLINK-34657 в реальном времени с AllMySat

Download on the App Store